WetterOnline ( https://www.wetteronline.de )

Wetter aktuell Weiberhof

Aktuelles Wetter: Neuhütten/Spessart (340m)

6-stündlich | Neueste Meldungen
Ortszeit Temperatur Wetter
Do, 24.06. 20:00 17.5° C bewölkt
Do, 24.06. 14:00 16.7° C bedeckt
Do, 24.06. 8:00 15.0° C leichter Regen
Do, 24.06. 2:00 16.7° C bedeckt
Mi, 23.06. 20:00 20.4° C wolkig
Mi, 23.06. 14:00 22.1° C fast wolkenlos
Mi, 23.06. 8:00 13.8° C bedeckt
Mi, 23.06. 2:00 14.0° C bedeckt
Ortszeit Temperatur Wetter
Do, 24.06. 20:00 17.5° C bewölkt
Do, 24.06. 19:50 17.5° C bewölkt
Do, 24.06. 19:40 17.3° C wolkig
Do, 24.06. 19:30 17.3° C wolkig
Do, 24.06. 19:20 17.3° C wolkig
Do, 24.06. 19:10 17.3° C wolkig
Do, 24.06. 19:00 17.3° C bedeckt
Do, 24.06. 18:30 17.4° C wolkig
Do, 24.06. 18:00 17.5° C wolkig
Do, 24.06. 17:30 17.6° C bedeckt
Do, 24.06. 17:00 17.6° C bedeckt
Ortszeit Relative Feuchte Sichtweite
Do, 24.06. 20:00 88% 35 km
Do, 24.06. 14:00 93% 16 km
Do, 24.06. 8:00 97% 3.9 km
Do, 24.06. 2:00 83% 40 km
Mi, 23.06. 20:00 76% 40 km
Mi, 23.06. 14:00 58% 60 km
Mi, 23.06. 8:00 97% 16 km
Mi, 23.06. 2:00 99% 1.8 km
Ortszeit Relative Feuchte Sichtweite
Do, 24.06. 20:00 88% 35 km
Do, 24.06. 19:50 88% -
Do, 24.06. 19:40 87% -
Do, 24.06. 19:30 89% 23 km
Do, 24.06. 19:20 89% -
Do, 24.06. 19:10 88% -
Do, 24.06. 19:00 88% 28 km
Do, 24.06. 18:30 86% 30 km
Do, 24.06. 18:00 85% 40 km
Do, 24.06. 17:30 84% 45 km
Do, 24.06. 17:00 83% 30 km
Ortszeit Niederschlagsmenge Niederschlagsart
Do, 24.06. 20:00 6 l/m2 in 12 Std. Regen
Do, 24.06. 14:00 6 l/m2 in 6 Std. Regen
Do, 24.06. 8:00 9 l/m2 in 12 Std. Regen
Do, 24.06. 2:00 0.0 l/m2 in 6 Std. -
Mi, 23.06. 20:00 1 l/m2 in 12 Std. -
Mi, 23.06. 14:00 1 l/m2 in 6 Std. Regen
Mi, 23.06. 8:00 0.0 l/m2 in 12 Std. -
Mi, 23.06. 2:00 0.0 l/m2 in 6 Std. -
Ortszeit Niederschlagsmenge Niederschlagsart
Do, 24.06. 20:00 0.1 l/m2 in 1 Std. Regen
Do, 24.06. 19:50 keine Meldung -
Do, 24.06. 19:40 keine Meldung -
Do, 24.06. 19:30 0.0 l/m2 in 1 Std. -
Do, 24.06. 19:20 keine Meldung -
Do, 24.06. 19:10 keine Meldung -
Do, 24.06. 19:00 0.0 l/m2 in 1 Std. -
Do, 24.06. 18:30 0.0 l/m2 in 1 Std. -
Do, 24.06. 18:00 0.0 l/m2 in 1 Std. -
Do, 24.06. 17:30 0.0 l/m2 in 1 Std. -
Do, 24.06. 17:00 0.0 l/m2 in 1 Std. Regen
Ortszeit Stärke Spitze Richtung
km/h Bft. km/h Grad Sektor
Do, 24.06. 20:00 0 0 25 - -
Do, 24.06. 14:00 11 2 18 60° NO
Do, 24.06. 8:00 7 2 18 60° NO
Do, 24.06. 2:00 9 2 28 70° O
Mi, 23.06. 20:00 9 2 19 70° O
Mi, 23.06. 14:00 7 2 22 50° NO
Mi, 23.06. 8:00 4 1 7 120° SO
Mi, 23.06. 2:00 2 1 9 250° W
Ortszeit Stärke Spitze Richtung
km/h Bft. km/h Grad Sektor
Do, 24.06. 20:00 0 0 7 - -
Do, 24.06. 19:50 0 0 - 170° S
Do, 24.06. 19:40 2 1 - 360° N
Do, 24.06. 19:30 4 1 7 20° N
Do, 24.06. 19:20 4 1 - 20° N
Do, 24.06. 19:10 4 1 - 30° NO
Do, 24.06. 19:00 4 1 11 40° NO
Do, 24.06. 18:30 4 1 11 110° O
Do, 24.06. 18:00 7 2 11 130° SO
Do, 24.06. 17:30 7 2 11 130° SO
Do, 24.06. 17:00 7 2 22 90° O
Ortszeit Untergrenze Bedeckung Gattung
total tief tief mittel hoch
Do, 24.06. 20:00 360 m 8/8 5/8 - - -
Do, 24.06. 14:00 180 m 8/8 8/8 - - -
Do, 24.06. 8:00 240 m 8/8 8/8 - - -
Do, 24.06. 2:00 3300 m 8/8 8/8 - - -
Mi, 23.06. 20:00 1410 m 8/8 2/8 - - -
Mi, 23.06. 14:00 1080 m 1/8 1/8 - - -
Mi, 23.06. 8:00 <30 m 8/8 0/8 - - -
Mi, 23.06. 2:00 <30 m 8/8 0/8 - - -
Ortszeit Bedeckungsgrad in Achtel und Wolkenuntergrenze
Do, 24.06. 20:00 2(360m) 5(540m) 8(4200m)
Do, 24.06. 19:50 2(360m) 5(540m) 8(4200m)
Do, 24.06. 19:40 3(420m) 8(4200m)
Do, 24.06. 19:30 1(2700m) 4(3300m) 8(4200m)
Do, 24.06. 19:20 1(2700m) 4(3300m) 8(4200m)
Do, 24.06. 19:10 1(2700m) 7(3300m) 8(4500m)
Do, 24.06. 19:00 7(3300m) 8(4500m)
Do, 24.06. 18:30 1(360m) 8(3900m) 8(4200m)
Do, 24.06. 18:00 2(510m) 7(4500m) 8(5100m)
Do, 24.06. 17:30 1(360m) 5(2100m) 8(2700m)
Do, 24.06. 17:00 5(510m) 7(660m) 8(2700m)
Ortszeit Luftdruck NN (hPa) Tendenz (hPa in 3 Std.)
Do, 24.06. 20:00 1017 - 0,8
Do, 24.06. 14:00 1018 + 0,3
Do, 24.06. 8:00 1018 + 0,1
Do, 24.06. 2:00 1018 + 0,7
Mi, 23.06. 20:00 1017 - 0,3
Mi, 23.06. 14:00 1018 - 0,3
Mi, 23.06. 8:00 1018 + 0,7
Mi, 23.06. 2:00 1017 + 0,9
Ortszeit Luftdruck NN (hPa) Tendenz (hPa in 3 Std.)
Do, 24.06. 20:00 1017 - 0,8
Do, 24.06. 19:50 1017 keine Meldung
Do, 24.06. 19:40 1017 keine Meldung
Do, 24.06. 19:30 1016 - 1,2
Do, 24.06. 19:20 1016 keine Meldung
Do, 24.06. 19:10 1016 keine Meldung
Do, 24.06. 19:00 1017 - 0,9
Do, 24.06. 18:30 1017 - 0,9
Do, 24.06. 18:00 1017 - 0,2
Do, 24.06. 17:30 1017 - 0,7
Do, 24.06. 17:00 1017 - 0,9
Ortszeit Schneehöhe (cm)
Do, 24.06. 20:00 -
Do, 24.06. 14:00 -
Do, 24.06. 8:00 -
Do, 24.06. 2:00 -
Mi, 23.06. 20:00 -
Mi, 23.06. 14:00 -
Mi, 23.06. 8:00 -
Mi, 23.06. 2:00 -
Ortszeit Schneehöhe (cm)
Do, 24.06. 20:00 -
Do, 24.06. 19:50 -
Do, 24.06. 19:40 -
Do, 24.06. 19:30 -
Do, 24.06. 19:20 -
Do, 24.06. 19:10 -
Do, 24.06. 19:00 -
Do, 24.06. 18:30 -
Do, 24.06. 18:00 -
Do, 24.06. 17:30 -
Do, 24.06. 17:00 -
Link zu dieser Seite / Seite empfehlen

Das Wetter in ...